カタログに戻る

ONEWEB-0633

運用中通信PO
NORAD 56074·PAYLOAD·🇬🇧 United Kingdom

打ち上げ Mar 26, 2023 から Satish Dhawan Space Centre

Loading…

次のパス (今後24時間)

TLE

最新Source: CelesTrak SupGP

元期: Sep 14, 2026, 23:50 UTC

1 56074C 23043AE  26257.99323333 -.00002720  00000+0 -72330-2 0  2577
2 56074  87.8988 241.2878 0001910  74.6461 315.6559 13.15552122    15

AllMySatでONEWEB-0633をリアルタイム追跡

Download on the App Store